Time,TemperatureF,DewpointF,PressureIn,WindDirection,WindDirectionDegrees,WindSpeedMPH,WindSpeedGustMPH,Humidity,HourlyPrecipIn,Conditions,Clouds,dailyrainin,SoftwareType,DateUTC
2013-10-13 00:01:00,65.3,55.3,30.03,North,0,0.0,0.0,70,0.00,CLR,FEW,0.00,WeatherDisplay:10.37,2013-10-13 04:01:00,
2013-10-13 00:02:00,65.3,55.3,30.03,North,0,0.0,0.0,70,0.00,CLR,FEW,0.00,WeatherDisplay:10.37,2013-10-13 04:02:00,
2013-10-13 00:04:00,65.3,55.3,30.03,North,0,0.0,0.0,70,0.00,CLR,FEW,0.00,WeatherDisplay:10.37,2013-10-13 04:04:00,
2013-10-13 00:05:00,65.3,55.3,30.03,North,0,0.0,0.0,70,0.00,CLR,FEW,0.00,WeatherDisplay:10.37,2013-10-13 04:05:00,
2013-10-13 00:07:00,65.3,55.3,30.03,North,0,0.0,0.0,70,0.00,CLR,FEW,0.00,WeatherDisplay:10.37,2013-10-13 04:07:00,
2013-10-13 00:12:00,65.3,55.7,30.03,North,0,0.0,0.0,71,0.00,CLR,FEW,0.00,WeatherDisplay:10.37,2013-10-13 04:12:00,
2013-10-13 00:13:00,65.3,55.7,30.03,North,0,0.0,0.0,71,0.00,CLR,FEW,0.00,WeatherDisplay:10.37,2013-10-13 04:13:00,
2013-10-13 00:18:00,65.3,55.7,30.03,North,0,0.0,0.0,71,0.00,CLR,FEW,0.00,WeatherDisplay:10.37,2013-10-13 04:18:00,
2013-10-13 00:23:00,65.1,55.5,30.03,North,0,0.0,0.0,71,0.00,CLR,FEW,0.00,WeatherDisplay:10.37,2013-10-13 04:23:00,
2013-10-13 00:28:00,65.1,55.9,30.03,North,0,0.0,0.0,72,0.00,CLR,FEW,0.00,WeatherDisplay:10.37,2013-10-13 04:28:00,
2013-10-13 00:33:00,65.1,55.9,30.03,North,0,0.0,0.0,72,0.00,CLR,FEW,0.00,WeatherDisplay:10.37,2013-10-13 04:33:00,
2013-10-13 00:38:00,65.1,55.9,30.03,North,0,0.0,0.0,72,0.00,CLR,FEW,0.00,WeatherDisplay:10.37,2013-10-13 04:38:00,
2013-10-13 00:43:00,65.1,56.2,30.03,North,0,0.0,0.0,73,0.00,CLR,FEW,0.00,WeatherDisplay:10.37,2013-10-13 04:43:00,
2013-10-13 00:48:00,64.9,56.5,30.03,North,0,0.0,0.0,74,0.00,CLR,FEW,0.00,WeatherDisplay:10.37,2013-10-13 04:48:00,
2013-10-13 00:53:00,64.9,56.5,30.03,North,0,0.0,0.0,74,0.00,CLR,FEW,0.00,WeatherDisplay:10.37,2013-10-13 04:53:00,
2013-10-13 00:58:00,64.9,56.8,30.03,North,0,0.0,0.0,75,0.00,CLR,FEW,0.00,WeatherDisplay:10.37,2013-10-13 04:58:00,
2013-10-13 01:04:00,64.8,57.0,30.03,North,0,0.0,0.0,76,0.00,CLR,FEW,0.00,WeatherDisplay:10.37,2013-10-13 05:04:00,
2013-10-13 01:09:00,64.8,57.0,30.03,North,0,0.0,0.0,76,0.00,CLR,FEW,0.00,WeatherDisplay:10.37,2013-10-13 05:09:00,
2013-10-13 01:15:00,64.6,56.8,30.03,North,0,0.0,0.0,76,0.00,CLR,FEW,0.00,WeatherDisplay:10.37,2013-10-13 05:15:00,
2013-10-13 01:20:00,64.4,56.7,30.03,North,0,0.0,0.0,76,0.00,CLR,FEW,0.00,WeatherDisplay:10.37,2013-10-13 05:20:00,
2013-10-13 01:25:00,64.4,57.0,30.03,North,0,0.0,0.0,77,0.00,CLR,FEW,0.00,WeatherDisplay:10.37,2013-10-13 05:25:00,
2013-10-13 01:30:00,64.4,57.4,30.03,North,0,0.0,0.0,78,0.00,CLR,FEW,0.00,WeatherDisplay:10.37,2013-10-13 05:30:00,
2013-10-13 01:35:00,64.2,57.6,30.03,North,0,0.0,0.0,79,0.00,CLR,FEW,0.00,WeatherDisplay:10.37,2013-10-13 05:35:00,
2013-10-13 01:40:00,64.2,57.6,30.03,North,0,0.0,0.0,79,0.00,CLR,FEW,0.00,WeatherDisplay:10.37,2013-10-13 05:40:00,
2013-10-13 01:45:00,64.0,57.4,30.03,North,0,0.0,0.0,79,0.00,CLR,FEW,0.00,WeatherDisplay:10.37,2013-10-13 05:45:00,
2013-10-13 01:50:00,63.9,57.6,30.03,North,0,0.0,0.0,80,0.00,CLR,FEW,0.00,WeatherDisplay:10.37,2013-10-13 05:50:00,
2013-10-13 01:55:00,63.9,57.6,30.03,North,0,0.0,0.0,80,0.00,CLR,FEW,0.00,WeatherDisplay:10.37,2013-10-13 05:55:00,
2013-10-13 02:00:00,63.9,57.9,30.03,North,0,0.0,0.0,81,0.00,CLR,FEW,0.00,WeatherDisplay:10.37,2013-10-13 06:00:00,
2013-10-13 02:05:00,63.7,58.1,30.03,North,0,0.0,0.0,82,0.00,CLR,FEW,0.00,WeatherDisplay:10.37,2013-10-13 06:05:00,
2013-10-13 02:10:00,63.5,57.9,30.03,North,0,0.0,0.0,82,0.00,CLR,FEW,0.00,WeatherDisplay:10.37,2013-10-13 06:10:00,
2013-10-13 02:15:00,63.5,57.9,30.03,North,0,0.0,0.0,82,0.00,CLR,FEW,0.00,WeatherDisplay:10.37,2013-10-13 06:15:00,
2013-10-13 02:20:00,63.5,58.2,30.03,North,0,0.0,0.0,83,0.00,CLR,FEW,0.00,WeatherDisplay:10.37,2013-10-13 06:20:00,
2013-10-13 02:25:00,63.3,58.1,30.03,North,0,0.0,0.0,83,0.00,CLR,FEW,0.00,WeatherDisplay:10.37,2013-10-13 06:25:00,
2013-10-13 02:30:00,63.3,58.4,30.03,North,0,0.0,0.0,84,0.00,CLR,FEW,0.00,WeatherDisplay:10.37,2013-10-13 06:30:00,
2013-10-13 02:35:00,63.3,58.4,30.03,North,0,0.0,0.0,84,0.00,CLR,FEW,0.00,WeatherDisplay:10.37,2013-10-13 06:35:00,
2013-10-13 02:40:00,63.3,58.7,30.03,North,0,0.0,0.0,85,0.00,CLR,FEW,0.00,WeatherDisplay:10.37,2013-10-13 06:40:00,
2013-10-13 02:45:00,63.1,58.6,30.03,North,0,0.0,0.0,85,0.00,CLR,FEW,0.00,WeatherDisplay:10.37,2013-10-13 06:45:00,
2013-10-13 02:50:00,63.1,58.9,30.03,North,0,0.0,0.0,86,0.00,CLR,FEW,0.00,WeatherDisplay:10.37,2013-10-13 06:50:00,
2013-10-13 02:55:00,63.1,59.2,30.03,North,0,0.0,0.0,87,0.00,CLR,FEW,0.00,WeatherDisplay:10.37,2013-10-13 06:55:00,
2013-10-13 03:00:00,63.1,59.2,30.03,North,0,0.0,0.0,87,0.00,CLR,FEW,0.00,WeatherDisplay:10.37,2013-10-13 07:00:00,
2013-10-13 03:06:00,63.3,60.0,30.03,North,0,0.0,0.0,89,0.00,CLR,FEW,0.00,WeatherDisplay:10.37,2013-10-13 07:06:00,
2013-10-13 03:11:00,63.3,60.3,30.03,North,0,0.0,0.0,90,0.00,CLR,FEW,0.00,WeatherDisplay:10.37,2013-10-13 07:11:00,
2013-10-13 03:16:00,63.5,60.5,30.03,North,0,0.0,0.0,90,0.00,CLR,FEW,0.00,WeatherDisplay:10.37,2013-10-13 07:16:00,
2013-10-13 03:21:00,63.7,61.0,30.03,North,0,0.0,0.0,91,0.00,CLR,FEW,0.00,WeatherDisplay:10.37,2013-10-13 07:21:00,
2013-10-13 03:26:00,63.7,61.3,30.03,North,0,0.0,0.0,92,0.00,CLR,FEW,0.00,WeatherDisplay:10.37,2013-10-13 07:26:00,
2013-10-13 03:31:00,63.9,61.5,30.03,North,0,0.0,0.0,92,0.00,CLR,FEW,0.00,WeatherDisplay:10.37,2013-10-13 07:31:00,
2013-10-13 03:36:00,63.9,61.8,30.03,North,0,0.0,0.0,93,0.00,CLR,FEW,0.00,WeatherDisplay:10.37,2013-10-13 07:36:00,
2013-10-13 03:41:00,63.9,61.8,30.03,North,0,0.0,0.0,93,0.00,CLR,FEW,0.00,WeatherDisplay:10.37,2013-10-13 07:41:00,
2013-10-13 03:46:00,63.9,61.8,30.03,North,0,0.0,0.0,93,0.00,CLR,FEW,0.00,WeatherDisplay:10.37,2013-10-13 07:46:00,
2013-10-13 03:51:00,63.9,61.5,30.03,North,0,0.0,0.0,92,0.00,CLR,FEW,0.00,WeatherDisplay:10.37,2013-10-13 07:51:00,
2013-10-13 03:56:00,63.9,61.5,30.03,North,0,0.0,0.0,92,0.00,CLR,FEW,0.00,WeatherDisplay:10.37,2013-10-13 07:56:00,
2013-10-13 04:01:00,64.0,61.7,30.03,North,0,0.0,0.0,92,0.00,CLR,FEW,0.00,WeatherDisplay:10.37,2013-10-13 08:01:00,
2013-10-13 04:06:00,64.0,62.0,30.03,North,0,0.0,0.0,93,0.00,CLR,FEW,0.00,WeatherDisplay:10.37,2013-10-13 08:06:00,
2013-10-13 04:11:00,64.2,62.2,30.03,North,0,0.0,0.0,93,0.00,CLR,FEW,0.00,WeatherDisplay:10.37,2013-10-13 08:11:00,
2013-10-13 04:16:00,64.2,62.2,30.03,North,0,0.0,0.0,93,0.00,CLR,FEW,0.00,WeatherDisplay:10.37,2013-10-13 08:16:00,
2013-10-13 04:21:00,64.4,62.3,30.03,North,0,0.0,0.0,93,0.00,CLR,FEW,0.00,WeatherDisplay:10.37,2013-10-13 08:21:00,
2013-10-13 04:26:00,64.4,62.3,30.03,North,0,0.0,0.0,93,0.00,CLR,FEW,0.00,WeatherDisplay:10.37,2013-10-13 08:26:00,
2013-10-13 04:31:00,64.6,62.5,30.03,North,0,0.0,0.0,93,0.00,CLR,FEW,0.00,WeatherDisplay:10.37,2013-10-13 08:31:00,
2013-10-13 04:36:00,64.6,62.5,30.03,North,0,0.0,0.0,93,0.00,CLR,FEW,0.00,WeatherDisplay:10.37,2013-10-13 08:36:00,
2013-10-13 04:41:00,64.6,62.5,30.03,North,0,0.0,0.0,93,0.00,CLR,FEW,0.00,WeatherDisplay:10.37,2013-10-13 08:41:00,
2013-10-13 04:46:00,64.6,62.5,30.03,North,0,0.0,0.0,93,0.00,CLR,FEW,0.00,WeatherDisplay:10.37,2013-10-13 08:46:00,
2013-10-13 04:51:00,64.8,62.7,30.03,North,0,0.0,0.0,93,0.00,CLR,FEW,0.00,WeatherDisplay:10.37,2013-10-13 08:51:00,
2013-10-13 04:56:00,64.8,62.7,30.03,North,0,0.0,0.0,93,0.00,CLR,FEW,0.00,WeatherDisplay:10.37,2013-10-13 08:56:00,
2013-10-13 05:01:00,64.8,62.4,30.06,North,0,0.0,0.0,92,0.00,CLR,FEW,0.00,WeatherDisplay:10.37,2013-10-13 09:01:00,
2013-10-13 05:06:00,64.8,62.4,30.06,North,0,0.0,0.0,92,0.00,CLR,FEW,0.00,WeatherDisplay:10.37,2013-10-13 09:06:00,
2013-10-13 05:11:00,64.8,62.4,30.06,North,0,0.0,0.0,92,0.00,CLR,FEW,0.00,WeatherDisplay:10.37,2013-10-13 09:11:00,
2013-10-13 05:16:00,64.9,62.6,30.06,North,0,0.0,0.0,92,0.00,CLR,FEW,0.00,WeatherDisplay:10.37,2013-10-13 09:16:00,
2013-10-13 05:21:00,65.1,62.7,30.06,North,0,0.0,0.0,92,0.00,CLR,FEW,0.00,WeatherDisplay:10.37,2013-10-13 09:21:00,
2013-10-13 05:26:00,65.1,62.7,30.06,North,0,0.0,0.0,92,0.00,CLR,FEW,0.00,WeatherDisplay:10.37,2013-10-13 09:26:00,
2013-10-13 05:31:00,65.1,62.7,30.06,North,0,0.0,0.0,92,0.00,CLR,FEW,0.00,WeatherDisplay:10.37,2013-10-13 09:31:00,
2013-10-13 05:36:00,65.1,62.7,30.06,North,0,0.0,0.0,92,0.00,CLR,FEW,0.00,WeatherDisplay:10.37,2013-10-13 09:36:00,
2013-10-13 05:41:00,65.3,62.9,30.06,North,0,0.0,0.0,92,0.00,CLR,FEW,0.00,WeatherDisplay:10.37,2013-10-13 09:41:00,
2013-10-13 05:46:00,65.3,62.6,30.06,North,0,0.0,0.0,91,0.00,CLR,FEW,0.00,WeatherDisplay:10.37,2013-10-13 09:46:00,
2013-10-13 05:51:00,65.3,62.6,30.06,North,0,0.0,0.0,91,0.00,CLR,FEW,0.00,WeatherDisplay:10.37,2013-10-13 09:51:00,
2013-10-13 05:56:00,65.3,62.6,30.06,North,0,0.0,0.0,91,0.00,CLR,FEW,0.00,WeatherDisplay:10.37,2013-10-13 09:56:00,
2013-10-13 06:01:00,65.3,62.6,30.06,North,0,0.0,0.0,91,0.00,CLR,FEW,0.00,WeatherDisplay:10.37,2013-10-13 10:01:00,
2013-10-13 06:06:00,65.5,62.5,30.06,North,0,0.0,0.0,90,0.00,CLR,FEW,0.00,WeatherDisplay:10.37,2013-10-13 10:06:00,
2013-10-13 06:11:00,65.5,62.5,30.06,North,0,0.0,0.0,90,0.00,CLR,FEW,0.00,WeatherDisplay:10.37,2013-10-13 10:11:00,
2013-10-13 06:16:00,65.5,62.5,30.06,North,0,0.0,0.0,90,0.00,CLR,FEW,0.00,WeatherDisplay:10.37,2013-10-13 10:16:00,
2013-10-13 06:21:00,65.5,62.5,30.06,North,0,0.0,0.0,90,0.00,CLR,FEW,0.00,WeatherDisplay:10.37,2013-10-13 10:21:00,
2013-10-13 06:26:00,65.5,62.5,30.06,North,0,0.0,0.0,90,0.00,CLR,FEW,0.00,WeatherDisplay:10.37,2013-10-13 10:26:00,
2013-10-13 06:31:00,65.5,62.5,30.06,North,0,0.0,0.0,90,0.00,CLR,FEW,0.00,WeatherDisplay:10.37,2013-10-13 10:31:00,
2013-10-13 06:36:00,65.5,62.5,30.06,North,0,0.0,0.0,90,0.00,CLR,FEW,0.00,WeatherDisplay:10.37,2013-10-13 10:36:00,
2013-10-13 06:41:00,65.5,62.5,30.06,North,0,0.0,0.0,90,0.00,CLR,FEW,0.00,WeatherDisplay:10.37,2013-10-13 10:41:00,
2013-10-13 06:46:00,65.5,62.5,30.06,North,0,0.0,0.0,90,0.00,CLR,FEW,0.00,WeatherDisplay:10.37,2013-10-13 10:46:00,
2013-10-13 06:51:00,65.5,62.5,30.06,North,0,0.0,0.0,90,0.00,CLR,FEW,0.00,WeatherDisplay:10.37,2013-10-13 10:51:00,
2013-10-13 06:56:00,65.5,62.5,30.06,North,0,0.0,0.0,90,0.00,CLR,FEW,0.00,WeatherDisplay:10.37,2013-10-13 10:56:00,
2013-10-13 07:01:00,65.7,63.0,30.06,North,0,0.0,0.0,91,0.00,CLR,FEW,0.00,WeatherDisplay:10.37,2013-10-13 11:01:00,
2013-10-13 07:06:00,65.7,63.0,30.06,North,0,0.0,0.0,91,0.00,CLR,FEW,0.00,WeatherDisplay:10.37,2013-10-13 11:06:00,
2013-10-13 07:11:00,65.7,63.0,30.06,North,0,0.0,0.0,91,0.00,CLR,FEW,0.00,WeatherDisplay:10.37,2013-10-13 11:11:00,
2013-10-13 07:16:00,65.7,63.0,30.06,North,0,0.0,0.0,91,0.00,CLR,FEW,0.00,WeatherDisplay:10.37,2013-10-13 11:16:00,
2013-10-13 07:21:00,65.8,63.1,30.06,North,0,0.0,0.0,91,0.00,CLR,FEW,0.00,WeatherDisplay:10.37,2013-10-13 11:21:00,
2013-10-13 07:26:00,65.8,63.1,30.06,North,0,0.0,0.0,91,0.00,CLR,FEW,0.00,WeatherDisplay:10.37,2013-10-13 11:26:00,
2013-10-13 07:31:00,65.8,63.1,30.06,North,0,0.0,0.0,91,0.00,CLR,FEW,0.00,WeatherDisplay:10.37,2013-10-13 11:31:00,
2013-10-13 07:37:00,65.8,63.5,30.06,North,0,0.0,0.0,92,0.00,CLR,FEW,0.00,WeatherDisplay:10.37,2013-10-13 11:37:00,
2013-10-13 07:42:00,65.8,63.5,30.06,North,0,0.0,0.0,92,0.00,CLR,FEW,0.00,WeatherDisplay:10.37,2013-10-13 11:42:00,
2013-10-13 07:47:00,65.8,63.5,30.06,North,0,0.0,0.0,92,0.00,CLR,FEW,0.00,WeatherDisplay:10.37,2013-10-13 11:47:00,
2013-10-13 07:52:00,66.0,63.6,30.06,North,0,0.0,0.0,92,0.00,CLR,FEW,0.00,WeatherDisplay:10.37,2013-10-13 11:52:00,
2013-10-13 07:57:00,66.0,63.6,30.06,North,0,0.0,0.0,92,0.00,CLR,FEW,0.00,WeatherDisplay:10.37,2013-10-13 11:57:00,
2013-10-13 08:02:00,66.0,63.6,30.06,North,0,0.0,0.0,92,0.00,CLR,FEW,0.00,WeatherDisplay:10.37,2013-10-13 12:02:00,
2013-10-13 08:07:00,66.2,63.5,30.06,North,0,0.0,0.0,91,0.00,CLR,FEW,0.00,WeatherDisplay:10.37,2013-10-13 12:07:00,
2013-10-13 08:12:00,66.2,63.5,30.06,North,0,0.0,0.0,91,0.00,CLR,FEW,0.00,WeatherDisplay:10.37,2013-10-13 12:12:00,
2013-10-13 08:17:00,66.2,63.5,30.06,North,0,0.0,0.0,91,0.00,CLR,FEW,0.00,WeatherDisplay:10.37,2013-10-13 12:17:00,
2013-10-13 08:22:00,66.4,63.7,30.06,North,0,0.0,0.0,91,0.00,CLR,FEW,0.00,WeatherDisplay:10.37,2013-10-13 12:22:00,
2013-10-13 08:27:00,66.6,63.9,30.06,North,0,0.0,0.0,91,0.00,CLR,FEW,0.00,WeatherDisplay:10.37,2013-10-13 12:27:00,
2013-10-13 08:32:00,66.6,63.9,30.06,North,0,0.0,0.0,91,0.00,CLR,FEW,0.00,WeatherDisplay:10.37,2013-10-13 12:32:00,
2013-10-13 08:37:00,66.7,64.0,30.06,North,0,0.0,0.0,91,0.00,CLR,FEW,0.00,WeatherDisplay:10.37,2013-10-13 12:37:00,
2013-10-13 08:42:00,66.7,64.0,30.09,North,0,0.0,0.0,91,0.00,CLR,FEW,0.00,WeatherDisplay:10.37,2013-10-13 12:42:00,
2013-10-13 08:47:00,66.9,64.2,30.09,North,0,0.0,0.0,91,0.00,CLR,FEW,0.00,WeatherDisplay:10.37,2013-10-13 12:47:00,
2013-10-13 08:52:00,67.1,64.1,30.09,North,0,0.0,0.0,90,0.00,CLR,FEW,0.00,WeatherDisplay:10.37,2013-10-13 12:52:00,
2013-10-13 08:57:00,67.3,64.2,30.09,North,0,0.0,0.0,90,0.00,CLR,FEW,0.00,WeatherDisplay:10.37,2013-10-13 12:57:00,
2013-10-13 09:02:00,67.5,64.1,30.09,North,0,0.0,0.0,89,0.00,CLR,FEW,0.00,WeatherDisplay:10.37,2013-10-13 13:02:00,
2013-10-13 09:07:00,67.8,64.5,30.09,North,0,0.0,0.0,89,0.00,CLR,FEW,0.00,WeatherDisplay:10.37,2013-10-13 13:07:00,
2013-10-13 09:12:00,68.0,64.0,30.09,North,0,0.0,0.0,87,0.00,CLR,FEW,0.00,WeatherDisplay:10.37,2013-10-13 13:12:00,
2013-10-13 09:17:00,68.2,64.2,30.09,North,0,0.0,0.0,87,0.00,CLR,FEW,0.00,WeatherDisplay:10.37,2013-10-13 13:17:00,
2013-10-13 09:23:00,68.2,61.8,30.09,North,0,0.0,0.0,80,0.00,CLR,FEW,0.00,WeatherDisplay:10.37,2013-10-13 13:23:00,
2013-10-13 09:28:00,68.0,60.2,30.09,North,0,0.0,0.0,76,0.00,CLR,FEW,0.00,WeatherDisplay:10.37,2013-10-13 13:28:00,
2013-10-13 09:33:00,68.2,60.7,30.09,North,0,0.0,0.0,77,0.00,CLR,FEW,0.00,WeatherDisplay:10.37,2013-10-13 13:33:00,
2013-10-13 09:38:00,68.4,60.5,30.09,North,0,0.0,0.0,76,0.00,CLR,FEW,0.00,WeatherDisplay:10.37,2013-10-13 13:38:00,
2013-10-13 09:43:00,68.5,60.3,30.09,North,0,0.0,0.0,75,0.00,CLR,FEW,0.00,WeatherDisplay:10.37,2013-10-13 13:43:00,
2013-10-13 09:48:00,68.7,60.1,30.09,North,0,0.0,0.0,74,0.00,CLR,FEW,0.00,WeatherDisplay:10.37,2013-10-13 13:48:00,
2013-10-13 09:53:00,68.7,58.9,30.09,North,0,0.0,0.0,71,0.00,CLR,FEW,0.00,WeatherDisplay:10.37,2013-10-13 13:53:00,
2013-10-13 09:58:00,68.7,58.9,30.09,North,0,0.0,0.0,71,0.00,CLR,FEW,0.00,WeatherDisplay:10.37,2013-10-13 13:58:00,
2013-10-13 10:03:00,68.7,58.5,30.09,North,0,0.0,0.0,70,0.00,CLR,FEW,0.00,WeatherDisplay:10.37,2013-10-13 14:03:00,
2013-10-13 10:08:00,68.9,59.1,30.09,North,0,0.0,0.0,71,0.00,CLR,FEW,0.00,WeatherDisplay:10.37,2013-10-13 14:08:00,
2013-10-13 10:13:00,68.9,58.7,30.09,North,0,0.0,0.0,70,0.00,CLR,FEW,0.00,WeatherDisplay:10.37,2013-10-13 14:13:00,
2013-10-13 10:18:00,68.9,58.7,30.09,North,0,0.0,0.0,70,0.00,CLR,FEW,0.00,WeatherDisplay:10.37,2013-10-13 14:18:00,
2013-10-13 10:24:00,69.1,59.3,30.09,North,0,0.0,0.0,71,0.00,CLR,FEW,0.00,WeatherDisplay:10.37,2013-10-13 14:24:00,
2013-10-13 10:29:00,69.3,59.1,30.09,North,0,0.0,0.0,70,0.00,CLR,FEW,0.00,WeatherDisplay:10.37,2013-10-13 14:29:00,
2013-10-13 10:34:00,69.4,58.8,30.09,North,0,0.0,0.0,69,0.00,CLR,FEW,0.00,WeatherDisplay:10.37,2013-10-13 14:34:00,
2013-10-13 10:39:00,69.6,58.6,30.09,North,0,0.0,0.0,68,0.00,CLR,FEW,0.00,WeatherDisplay:10.37,2013-10-13 14:39:00,
2013-10-13 10:44:00,69.8,58.3,30.09,North,0,0.0,0.0,67,0.00,CLR,FEW,0.00,WeatherDisplay:10.37,2013-10-13 14:44:00,
2013-10-13 10:49:00,70.0,58.1,30.09,North,0,0.0,0.0,66,0.00,CLR,FEW,0.00,WeatherDisplay:10.37,2013-10-13 14:49:00,
2013-10-13 10:54:00,70.3,58.0,30.09,North,0,0.0,0.0,65,0.00,CLR,FEW,0.00,WeatherDisplay:10.37,2013-10-13 14:54:00,
2013-10-13 11:00:00,70.7,58.4,30.09,North,0,0.0,0.0,65,0.00,CLR,FEW,0.00,WeatherDisplay:10.37,2013-10-13 15:00:00,
2013-10-13 11:05:00,70.9,56.8,30.09,North,0,0.0,0.0,61,0.00,CLR,FEW,0.00,WeatherDisplay:10.37,2013-10-13 15:05:00,
2013-10-13 11:10:00,71.2,55.7,30.09,North,0,0.0,0.0,58,0.00,CLR,FEW,0.00,WeatherDisplay:10.37,2013-10-13 15:10:00,
2013-10-13 11:16:00,71.8,53.7,30.09,North,0,0.0,0.0,53,0.00,CLR,FEW,0.00,WeatherDisplay:10.37,2013-10-13 15:16:00,
2013-10-13 11:21:00,72.1,53.5,30.09,North,0,0.0,0.0,52,0.00,CLR,FEW,0.00,WeatherDisplay:10.37,2013-10-13 15:21:00,
2013-10-13 11:26:00,72.3,52.1,30.09,North,0,0.0,0.0,49,0.00,CLR,FEW,0.00,WeatherDisplay:10.37,2013-10-13 15:26:00,
2013-10-13 11:31:00,72.3,51.5,30.09,North,0,0.0,0.0,48,0.00,CLR,FEW,0.00,WeatherDisplay:10.37,2013-10-13 15:31:00,
2013-10-13 11:36:00,72.7,52.4,30.09,North,0,0.0,0.0,49,0.00,CLR,FEW,0.00,WeatherDisplay:10.37,2013-10-13 15:36:00,
2013-10-13 11:41:00,73.0,52.7,30.09,North,0,0.0,0.0,49,0.00,CLR,FEW,0.00,WeatherDisplay:10.37,2013-10-13 15:41:00,
2013-10-13 11:46:00,73.0,52.2,30.09,North,0,0.0,0.0,48,0.00,CLR,FEW,0.00,WeatherDisplay:10.37,2013-10-13 15:46:00,
2013-10-13 11:51:00,73.2,51.8,30.09,North,0,0.0,0.0,47,0.00,CLR,FEW,0.00,WeatherDisplay:10.37,2013-10-13 15:51:00,
2013-10-13 11:56:00,73.8,52.3,30.09,North,0,0.0,0.0,47,0.00,CLR,FEW,0.00,WeatherDisplay:10.37,2013-10-13 15:56:00,
2013-10-13 12:01:00,73.8,49.9,30.09,North,0,0.0,0.0,43,0.00,CLR,FEW,0.00,WeatherDisplay:10.37,2013-10-13 16:01:00,
2013-10-13 12:06:00,73.4,50.2,30.09,North,0,0.0,0.0,44,0.00,CLR,FEW,0.00,WeatherDisplay:10.37,2013-10-13 16:06:00,
2013-10-13 12:11:00,72.9,51.4,30.09,North,0,0.0,0.0,47,0.00,CLR,FEW,0.00,WeatherDisplay:10.37,2013-10-13 16:11:00,
2013-10-13 12:16:00,72.7,51.9,30.09,North,0,0.0,0.0,48,0.00,CLR,FEW,0.00,WeatherDisplay:10.37,2013-10-13 16:16:00,
2013-10-13 12:21:00,72.7,51.9,30.09,North,0,0.0,0.0,48,0.00,CLR,FEW,0.00,WeatherDisplay:10.37,2013-10-13 16:21:00,
2013-10-13 12:26:00,72.7,51.9,30.09,North,0,0.0,0.0,48,0.00,CLR,FEW,0.00,WeatherDisplay:10.37,2013-10-13 16:26:00,
2013-10-13 12:31:00,72.9,53.1,30.09,North,0,0.0,0.0,50,0.00,CLR,FEW,0.00,WeatherDisplay:10.37,2013-10-13 16:31:00,
2013-10-13 12:36:00,73.2,52.3,30.09,North,0,0.0,0.0,48,0.00,CLR,FEW,0.00,WeatherDisplay:10.37,2013-10-13 16:36:00,
2013-10-13 12:41:00,73.6,51.5,30.09,North,0,0.0,0.0,46,0.00,CLR,FEW,0.00,WeatherDisplay:10.37,2013-10-13 16:41:00,
2013-10-13 12:46:00,73.6,50.9,30.09,North,0,0.0,0.0,45,0.00,CLR,FEW,0.00,WeatherDisplay:10.37,2013-10-13 16:46:00,
2013-10-13 12:51:00,73.6,50.9,30.09,North,0,0.0,0.0,45,0.00,CLR,FEW,0.00,WeatherDisplay:10.37,2013-10-13 16:51:00,
2013-10-13 12:56:00,73.9,50.6,30.09,North,0,0.0,0.0,44,0.00,CLR,FEW,0.00,WeatherDisplay:10.37,2013-10-13 16:56:00,
2013-10-13 13:02:00,73.8,51.1,30.09,North,0,0.0,0.0,45,0.00,CLR,FEW,0.00,WeatherDisplay:10.37,2013-10-13 17:02:00,
2013-10-13 13:07:00,73.8,51.1,30.09,North,0,0.0,0.0,45,0.00,CLR,FEW,0.00,WeatherDisplay:10.37,2013-10-13 17:07:00,
2013-10-13 13:12:00,73.8,51.1,30.09,North,0,0.0,0.0,45,0.00,CLR,FEW,0.00,WeatherDisplay:10.37,2013-10-13 17:12:00,
2013-10-13 13:17:00,73.6,50.9,30.09,North,0,0.0,0.0,45,0.00,CLR,FEW,0.00,WeatherDisplay:10.37,2013-10-13 17:17:00,
2013-10-13 13:22:00,73.2,50.6,30.09,North,0,0.0,0.0,45,0.00,CLR,FEW,0.00,WeatherDisplay:10.37,2013-10-13 17:22:00,
2013-10-13 13:27:00,72.9,50.9,30.09,North,0,0.0,0.0,46,0.00,CLR,FEW,0.00,WeatherDisplay:10.37,2013-10-13 17:27:00,
2013-10-13 13:33:00,72.9,51.4,30.09,North,0,0.0,0.0,47,0.00,CLR,FEW,0.00,WeatherDisplay:10.37,2013-10-13 17:33:00,
2013-10-13 13:38:00,73.4,51.9,30.09,North,0,0.0,0.0,47,0.00,CLR,FEW,0.00,WeatherDisplay:10.37,2013-10-13 17:38:00,
2013-10-13 13:43:00,73.6,50.9,30.09,North,0,0.0,0.0,45,0.00,CLR,FEW,0.00,WeatherDisplay:10.37,2013-10-13 17:43:00,
2013-10-13 13:48:00,73.8,49.9,30.09,North,0,0.0,0.0,43,0.00,CLR,FEW,0.00,WeatherDisplay:10.37,2013-10-13 17:48:00,
2013-10-13 13:53:00,73.4,49.5,30.09,North,0,0.0,0.0,43,0.00,CLR,FEW,0.00,WeatherDisplay:10.37,2013-10-13 17:53:00,
2013-10-13 13:58:00,73.4,50.8,30.06,North,0,0.0,0.0,45,0.00,CLR,FEW,0.00,WeatherDisplay:10.37,2013-10-13 17:58:00,
2013-10-13 14:03:00,73.9,51.3,30.06,North,0,0.0,0.0,45,0.00,CLR,FEW,0.00,WeatherDisplay:10.37,2013-10-13 18:03:00,
2013-10-13 14:08:00,74.1,50.8,30.06,North,0,0.0,0.0,44,0.00,CLR,FEW,0.00,WeatherDisplay:10.37,2013-10-13 18:08:00,
2013-10-13 14:13:00,74.5,49.9,30.06,North,0,0.0,0.0,42,0.00,CLR,FEW,0.00,WeatherDisplay:10.37,2013-10-13 18:13:00,
2013-10-13 14:18:00,74.3,51.0,30.06,North,0,0.0,0.0,44,0.00,CLR,FEW,0.00,WeatherDisplay:10.37,2013-10-13 18:18:00,
2013-10-13 14:23:00,73.2,51.2,30.06,North,0,0.0,0.0,46,0.00,CLR,FEW,0.00,WeatherDisplay:10.37,2013-10-13 18:23:00,
2013-10-13 14:28:00,72.5,51.7,30.06,North,0,0.0,0.0,48,0.00,CLR,FEW,0.00,WeatherDisplay:10.37,2013-10-13 18:28:00,
2013-10-13 14:33:00,72.5,53.3,30.06,North,0,0.0,0.0,51,0.00,CLR,FEW,0.00,WeatherDisplay:10.37,2013-10-13 18:33:00,
2013-10-13 14:38:00,72.5,53.9,30.06,North,0,0.0,0.0,52,0.00,CLR,FEW,0.00,WeatherDisplay:10.37,2013-10-13 18:38:00,
2013-10-13 14:43:00,73.0,54.9,30.06,North,0,0.0,0.0,53,0.00,CLR,FEW,0.00,WeatherDisplay:10.37,2013-10-13 18:43:00,
2013-10-13 14:48:00,73.4,51.4,30.06,North,0,0.0,0.0,46,0.00,CLR,FEW,0.00,WeatherDisplay:10.37,2013-10-13 18:48:00,
2013-10-13 14:53:00,73.8,51.7,30.06,North,0,0.0,0.0,46,0.00,CLR,FEW,0.00,WeatherDisplay:10.37,2013-10-13 18:53:00,
2013-10-13 14:58:00,73.9,51.3,30.06,North,0,0.0,0.0,45,0.00,CLR,FEW,0.00,WeatherDisplay:10.37,2013-10-13 18:58:00,
2013-10-13 15:03:00,73.8,50.5,30.06,North,0,0.0,0.0,44,0.00,CLR,FEW,0.00,WeatherDisplay:10.37,2013-10-13 19:03:00,
2013-10-13 15:08:00,73.6,50.3,30.06,North,0,0.0,0.0,44,0.00,CLR,FEW,0.00,WeatherDisplay:10.37,2013-10-13 19:08:00,
2013-10-13 15:13:00,73.2,50.6,30.06,North,0,0.0,0.0,45,0.00,CLR,FEW,0.00,WeatherDisplay:10.37,2013-10-13 19:13:00,
2013-10-13 15:18:00,73.0,51.0,30.06,North,0,0.0,0.0,46,0.00,CLR,FEW,0.00,WeatherDisplay:10.37,2013-10-13 19:18:00,
2013-10-13 15:23:00,73.0,51.6,30.06,North,0,0.0,0.0,47,0.00,CLR,FEW,0.00,WeatherDisplay:10.37,2013-10-13 19:23:00,
2013-10-13 15:28:00,73.4,51.9,30.06,North,0,0.0,0.0,47,0.00,CLR,FEW,0.00,WeatherDisplay:10.37,2013-10-13 19:28:00,
2013-10-13 15:33:00,73.9,51.8,30.06,North,0,0.0,0.0,46,0.00,CLR,FEW,0.00,WeatherDisplay:10.37,2013-10-13 19:33:00,
2013-10-13 15:38:00,74.3,50.4,30.06,North,0,0.0,0.0,43,0.00,CLR,FEW,0.00,WeatherDisplay:10.37,2013-10-13 19:38:00,
2013-10-13 15:43:00,74.5,51.1,30.06,North,0,0.0,0.0,44,0.00,CLR,FEW,0.00,WeatherDisplay:10.37,2013-10-13 19:43:00,
2013-10-13 15:48:00,74.7,50.7,30.06,North,0,0.0,0.0,43,0.00,CLR,FEW,0.00,WeatherDisplay:10.37,2013-10-13 19:48:00,
2013-10-13 15:53:00,74.8,50.8,30.06,North,0,0.0,0.0,43,0.00,CLR,FEW,0.00,WeatherDisplay:10.37,2013-10-13 19:53:00,
2013-10-13 15:58:00,75.0,50.4,30.03,North,0,0.0,0.0,42,0.00,CLR,FEW,0.00,WeatherDisplay:10.37,2013-10-13 19:58:00,
2013-10-13 16:03:00,75.0,49.7,30.03,North,0,0.0,0.0,41,0.00,CLR,FEW,0.00,WeatherDisplay:10.37,2013-10-13 20:03:00,
2013-10-13 16:08:00,75.0,49.7,30.03,North,0,0.0,0.0,41,0.00,CLR,FEW,0.00,WeatherDisplay:10.37,2013-10-13 20:08:00,
2013-10-13 16:13:00,74.5,49.2,30.06,North,0,0.0,0.0,41,0.00,CLR,FEW,0.00,WeatherDisplay:10.37,2013-10-13 20:13:00,
2013-10-13 16:18:00,74.1,49.6,30.06,North,0,0.0,0.0,42,0.00,CLR,FEW,0.00,WeatherDisplay:10.37,2013-10-13 20:18:00,
2013-10-13 16:23:00,73.6,49.7,30.06,North,0,0.0,0.0,43,0.00,CLR,FEW,0.00,WeatherDisplay:10.37,2013-10-13 20:23:00,
2013-10-13 16:28:00,73.2,50.0,30.06,North,0,0.0,0.0,44,0.00,CLR,FEW,0.00,WeatherDisplay:10.37,2013-10-13 20:28:00,
2013-10-13 16:33:00,73.2,50.6,30.06,North,0,0.0,0.0,45,0.00,CLR,FEW,0.00,WeatherDisplay:10.37,2013-10-13 20:33:00,
2013-10-13 16:39:00,73.0,51.6,30.06,North,0,0.0,0.0,47,0.00,CLR,FEW,0.00,WeatherDisplay:10.37,2013-10-13 20:39:00,
2013-10-13 16:44:00,73.0,51.6,30.06,North,0,0.0,0.0,47,0.00,CLR,FEW,0.00,WeatherDisplay:10.37,2013-10-13 20:44:00,
2013-10-13 16:49:00,73.0,50.4,30.06,North,0,0.0,0.0,45,0.00,CLR,FEW,0.00,WeatherDisplay:10.37,2013-10-13 20:49:00,
2013-10-13 16:54:00,73.0,51.0,30.06,North,0,0.0,0.0,46,0.00,CLR,FEW,0.00,WeatherDisplay:10.37,2013-10-13 20:54:00,
2013-10-13 16:59:00,73.2,51.8,30.06,North,0,0.0,0.0,47,0.00,CLR,FEW,0.00,WeatherDisplay:10.37,2013-10-13 20:59:00,
2013-10-13 17:04:00,73.0,51.0,30.06,North,0,0.0,0.0,46,0.00,CLR,FEW,0.00,WeatherDisplay:10.37,2013-10-13 21:04:00,
2013-10-13 17:10:00,72.9,50.9,30.06,North,0,0.0,0.0,46,0.00,CLR,FEW,0.00,WeatherDisplay:10.37,2013-10-13 21:10:00,
2013-10-13 17:15:00,72.7,50.7,30.06,North,0,0.0,0.0,46,0.00,CLR,FEW,0.00,WeatherDisplay:10.37,2013-10-13 21:15:00,
2013-10-13 17:20:00,72.7,51.3,30.06,North,0,0.0,0.0,47,0.00,CLR,FEW,0.00,WeatherDisplay:10.37,2013-10-13 21:20:00,
2013-10-13 17:25:00,72.5,51.1,30.06,North,0,0.0,0.0,47,0.00,CLR,FEW,0.00,WeatherDisplay:10.37,2013-10-13 21:25:00,
2013-10-13 17:30:00,72.5,51.1,30.06,North,0,0.0,0.0,47,0.00,CLR,FEW,0.00,WeatherDisplay:10.37,2013-10-13 21:30:00,
2013-10-13 17:35:00,72.3,51.5,30.06,North,0,0.0,0.0,48,0.00,CLR,FEW,0.00,WeatherDisplay:10.37,2013-10-13 21:35:00,
2013-10-13 17:40:00,72.3,51.0,30.06,North,0,0.0,0.0,47,0.00,CLR,FEW,0.00,WeatherDisplay:10.37,2013-10-13 21:40:00,
2013-10-13 17:45:00,72.1,51.4,30.06,North,0,0.0,0.0,48,0.00,CLR,FEW,0.00,WeatherDisplay:10.37,2013-10-13 21:45:00,
2013-10-13 17:50:00,72.1,51.4,30.06,North,0,0.0,0.0,48,0.00,CLR,FEW,0.00,WeatherDisplay:10.37,2013-10-13 21:50:00,
2013-10-13 17:55:00,72.0,51.8,30.06,North,0,0.0,0.0,49,0.00,CLR,FEW,0.00,WeatherDisplay:10.37,2013-10-13 21:55:00,
2013-10-13 18:00:00,72.0,51.8,30.06,North,0,0.0,0.0,49,0.00,CLR,FEW,0.00,WeatherDisplay:10.37,2013-10-13 22:00:00,
2013-10-13 18:05:00,72.0,52.3,30.06,North,0,0.0,0.0,50,0.00,CLR,FEW,0.00,WeatherDisplay:10.37,2013-10-13 22:05:00,
2013-10-13 18:11:00,72.0,51.8,30.06,North,0,0.0,0.0,49,0.00,CLR,FEW,0.00,WeatherDisplay:10.37,2013-10-13 22:11:00,
2013-10-13 18:16:00,71.8,52.1,30.06,North,0,0.0,0.0,50,0.00,CLR,FEW,0.00,WeatherDisplay:10.37,2013-10-13 22:16:00,
2013-10-13 18:21:00,71.8,52.7,30.06,North,0,0.0,0.0,51,0.00,CLR,FEW,0.00,WeatherDisplay:10.37,2013-10-13 22:21:00,
2013-10-13 18:27:00,71.6,53.0,30.06,North,0,0.0,0.0,52,0.00,CLR,FEW,0.00,WeatherDisplay:10.37,2013-10-13 22:27:00,
2013-10-13 18:32:00,71.6,53.0,30.06,North,0,0.0,0.0,52,0.00,CLR,FEW,0.00,WeatherDisplay:10.37,2013-10-13 22:32:00,
2013-10-13 18:37:00,71.6,53.0,30.06,North,0,0.0,0.0,52,0.00,CLR,FEW,0.00,WeatherDisplay:10.37,2013-10-13 22:37:00,
2013-10-13 18:43:00,71.4,53.4,30.06,North,0,0.0,0.0,53,0.00,CLR,FEW,0.00,WeatherDisplay:10.37,2013-10-13 22:43:00,
2013-10-13 18:48:00,71.2,53.7,30.06,North,0,0.0,0.0,54,0.00,CLR,FEW,0.00,WeatherDisplay:10.37,2013-10-13 22:48:00,
2013-10-13 18:53:00,71.2,53.7,30.06,North,0,0.0,0.0,54,0.00,CLR,FEW,0.00,WeatherDisplay:10.37,2013-10-13 22:53:00,
2013-10-13 18:58:00,71.1,54.1,30.06,North,0,0.0,0.0,55,0.00,CLR,FEW,0.00,WeatherDisplay:10.37,2013-10-13 22:58:00,
2013-10-13 19:03:00,71.1,54.6,30.06,North,0,0.0,0.0,56,0.00,CLR,FEW,0.00,WeatherDisplay:10.37,2013-10-13 23:03:00,
2013-10-13 19:08:00,71.1,54.6,30.06,North,0,0.0,0.0,56,0.00,CLR,FEW,0.00,WeatherDisplay:10.37,2013-10-13 23:08:00,
2013-10-13 19:13:00,70.9,54.4,30.06,North,0,0.0,0.0,56,0.00,CLR,FEW,0.00,WeatherDisplay:10.37,2013-10-13 23:13:00,
2013-10-13 19:18:00,70.9,54.4,30.06,North,0,0.0,0.0,56,0.00,CLR,FEW,0.00,WeatherDisplay:10.37,2013-10-13 23:18:00,
2013-10-13 19:23:00,70.9,54.4,30.06,North,0,0.0,0.0,56,0.00,CLR,FEW,0.00,WeatherDisplay:10.37,2013-10-13 23:23:00,
2013-10-13 19:29:00,70.9,54.9,30.06,North,0,0.0,0.0,57,0.00,CLR,FEW,0.00,WeatherDisplay:10.37,2013-10-13 23:29:00,
2013-10-13 19:35:00,70.9,54.4,30.06,North,0,0.0,0.0,56,0.00,CLR,FEW,0.00,WeatherDisplay:10.37,2013-10-13 23:35:00,
2013-10-13 19:40:00,70.9,54.4,30.06,North,0,0.0,0.0,56,0.00,CLR,FEW,0.00,WeatherDisplay:10.37,2013-10-13 23:40:00,
2013-10-13 19:45:00,70.7,54.7,30.06,North,0,0.0,0.0,57,0.00,CLR,FEW,0.00,WeatherDisplay:10.37,2013-10-13 23:45:00,
2013-10-13 19:51:00,70.7,54.7,30.06,North,0,0.0,0.0,57,0.00,CLR,FEW,0.00,WeatherDisplay:10.37,2013-10-13 23:51:00,
2013-10-13 19:56:00,70.5,55.0,30.06,North,0,0.0,0.0,58,0.00,CLR,FEW,0.00,WeatherDisplay:10.37,2013-10-13 23:56:00,
2013-10-13 20:01:00,70.3,55.3,30.06,North,0,0.0,0.0,59,0.00,CLR,FEW,0.00,WeatherDisplay:10.37,2013-10-14 00:01:00,
2013-10-13 20:06:00,70.3,55.3,30.06,North,0,0.0,0.0,59,0.00,CLR,FEW,0.00,WeatherDisplay:10.37,2013-10-14 00:06:00,
2013-10-13 20:11:00,70.2,55.6,30.06,North,0,0.0,0.0,60,0.00,CLR,FEW,0.00,WeatherDisplay:10.37,2013-10-14 00:11:00,
2013-10-13 20:16:00,70.0,55.9,30.06,North,0,0.0,0.0,61,0.00,CLR,FEW,0.00,WeatherDisplay:10.37,2013-10-14 00:16:00,
2013-10-13 20:21:00,70.0,56.4,30.06,North,0,0.0,0.0,62,0.00,CLR,FEW,0.00,WeatherDisplay:10.37,2013-10-14 00:21:00,
2013-10-13 20:26:00,70.0,56.8,30.06,North,0,0.0,0.0,63,0.00,CLR,FEW,0.00,WeatherDisplay:10.37,2013-10-14 00:26:00,
2013-10-13 20:31:00,70.0,56.4,30.06,North,0,0.0,0.0,62,0.00,CLR,FEW,0.00,WeatherDisplay:10.37,2013-10-14 00:31:00,
2013-10-13 20:37:00,69.8,56.6,30.06,North,0,0.0,0.0,63,0.00,CLR,FEW,0.00,WeatherDisplay:10.37,2013-10-14 00:37:00,
2013-10-13 20:43:00,69.6,56.9,30.06,North,0,0.0,0.0,64,0.00,CLR,FEW,0.00,WeatherDisplay:10.37,2013-10-14 00:43:00,
2013-10-13 20:48:00,69.6,57.3,30.06,North,0,0.0,0.0,65,0.00,CLR,FEW,0.00,WeatherDisplay:10.37,2013-10-14 00:48:00,
2013-10-13 20:53:00,69.6,57.8,30.06,North,0,0.0,0.0,66,0.00,CLR,FEW,0.00,WeatherDisplay:10.37,2013-10-14 00:53:00,
2013-10-13 20:58:00,69.6,57.8,30.06,North,0,0.0,0.0,66,0.00,CLR,FEW,0.00,WeatherDisplay:10.37,2013-10-14 00:58:00,
2013-10-13 21:03:00,69.4,58.0,30.06,North,0,0.0,0.0,67,0.00,CLR,FEW,0.00,WeatherDisplay:10.37,2013-10-14 01:03:00,
2013-10-13 21:08:00,69.4,58.0,30.06,North,0,0.0,0.0,67,0.00,CLR,FEW,0.00,WeatherDisplay:10.37,2013-10-14 01:08:00,
2013-10-13 21:13:00,69.3,58.2,30.09,North,0,0.0,0.0,68,0.00,CLR,FEW,0.00,WeatherDisplay:10.37,2013-10-14 01:13:00,
2013-10-13 21:18:00,69.3,58.7,30.09,North,0,0.0,0.0,69,0.00,CLR,FEW,0.00,WeatherDisplay:10.37,2013-10-14 01:18:00,
2013-10-13 21:24:00,69.3,58.7,30.09,North,0,0.0,0.0,69,0.00,CLR,FEW,0.00,WeatherDisplay:10.37,2013-10-14 01:24:00,
2013-10-13 21:29:00,69.1,58.5,30.09,North,0,0.0,0.0,69,0.00,CLR,FEW,0.00,WeatherDisplay:10.37,2013-10-14 01:29:00,
2013-10-13 21:34:00,69.1,58.5,30.09,North,0,0.0,0.0,69,0.00,CLR,FEW,0.00,WeatherDisplay:10.37,2013-10-14 01:34:00,
2013-10-13 21:39:00,69.1,58.9,30.09,North,0,0.0,0.0,70,0.00,CLR,FEW,0.00,WeatherDisplay:10.37,2013-10-14 01:39:00,
2013-10-13 21:45:00,68.9,58.7,30.09,North,0,0.0,0.0,70,0.00,CLR,FEW,0.00,WeatherDisplay:10.37,2013-10-14 01:45:00,
2013-10-13 21:50:00,68.9,58.7,30.09,North,0,0.0,0.0,70,0.00,CLR,FEW,0.00,WeatherDisplay:10.37,2013-10-14 01:50:00,
2013-10-13 21:55:00,68.9,59.1,30.09,North,0,0.0,0.0,71,0.00,CLR,FEW,0.00,WeatherDisplay:10.37,2013-10-14 01:55:00,
2013-10-13 22:00:00,68.9,58.7,30.09,North,0,0.0,0.0,70,0.00,CLR,FEW,0.00,WeatherDisplay:10.37,2013-10-14 02:00:00,
2013-10-13 22:05:00,68.9,58.7,30.09,North,0,0.0,0.0,70,0.00,CLR,FEW,0.00,WeatherDisplay:10.37,2013-10-14 02:05:00,
2013-10-13 22:10:00,68.9,58.7,30.09,North,0,0.0,0.0,70,0.00,CLR,FEW,0.00,WeatherDisplay:10.37,2013-10-14 02:10:00,
2013-10-13 22:15:00,68.7,58.5,30.09,North,0,0.0,0.0,70,0.00,CLR,FEW,0.00,WeatherDisplay:10.37,2013-10-14 02:15:00,
2013-10-13 22:20:00,68.7,58.9,30.09,North,0,0.0,0.0,71,0.00,CLR,FEW,0.00,WeatherDisplay:10.37,2013-10-14 02:20:00,
2013-10-13 22:25:00,68.7,58.9,30.09,North,0,0.0,0.0,71,0.00,CLR,FEW,0.00,WeatherDisplay:10.37,2013-10-14 02:25:00,
2013-10-13 22:30:00,68.5,58.8,30.09,North,0,0.0,0.0,71,0.00,CLR,FEW,0.00,WeatherDisplay:10.37,2013-10-14 02:30:00,
2013-10-13 22:35:00,68.5,59.2,30.09,North,0,0.0,0.0,72,0.00,CLR,FEW,0.00,WeatherDisplay:10.37,2013-10-14 02:35:00,
2013-10-13 22:41:00,68.5,59.2,30.09,North,0,0.0,0.0,72,0.00,CLR,FEW,0.00,WeatherDisplay:10.37,2013-10-14 02:41:00,
2013-10-13 22:46:00,68.5,59.2,30.09,North,0,0.0,0.0,72,0.00,CLR,FEW,0.00,WeatherDisplay:10.37,2013-10-14 02:46:00,
2013-10-13 22:51:00,68.5,59.2,30.09,North,0,0.0,0.0,72,0.00,CLR,FEW,0.00,WeatherDisplay:10.37,2013-10-14 02:51:00,
2013-10-13 22:57:00,68.5,59.2,30.09,North,0,0.0,0.0,72,0.00,CLR,FEW,0.00,WeatherDisplay:10.37,2013-10-14 02:57:00,
2013-10-13 23:02:00,68.5,59.2,30.09,North,0,0.0,0.0,72,0.00,CLR,FEW,0.00,WeatherDisplay:10.37,2013-10-14 03:02:00,
2013-10-13 23:08:00,68.7,58.9,30.09,North,0,0.0,0.0,71,0.00,CLR,FEW,0.00,WeatherDisplay:10.37,2013-10-14 03:08:00,
2013-10-13 23:13:00,68.7,58.9,30.09,North,0,0.0,0.0,71,0.00,CLR,FEW,0.00,WeatherDisplay:10.37,2013-10-14 03:13:00,
2013-10-13 23:18:00,68.7,58.9,30.09,North,0,0.0,0.0,71,0.00,CLR,FEW,0.00,WeatherDisplay:10.37,2013-10-14 03:18:00,
2013-10-13 23:23:00,68.7,58.9,30.09,North,0,0.0,0.0,71,0.00,CLR,FEW,0.00,WeatherDisplay:10.37,2013-10-14 03:23:00,
2013-10-13 23:29:00,68.7,58.9,30.09,North,0,0.0,0.0,71,0.00,CLR,FEW,0.00,WeatherDisplay:10.37,2013-10-14 03:29:00,
2013-10-13 23:34:00,68.9,59.1,30.09,North,0,0.0,0.0,71,0.00,CLR,FEW,0.00,WeatherDisplay:10.37,2013-10-14 03:34:00,
2013-10-13 23:39:00,68.9,59.1,30.09,North,0,0.0,0.0,71,0.00,CLR,FEW,0.00,WeatherDisplay:10.37,2013-10-14 03:39:00,
2013-10-13 23:45:00,68.9,58.7,30.09,North,0,0.0,0.0,70,0.00,CLR,FEW,0.00,WeatherDisplay:10.37,2013-10-14 03:45:00,
2013-10-13 23:50:00,68.9,58.7,30.09,North,0,0.0,0.0,70,0.00,CLR,FEW,0.00,WeatherDisplay:10.37,2013-10-14 03:50:00,
2013-10-13 23:55:00,69.1,58.9,30.09,North,0,0.0,0.0,70,0.00,CLR,FEW,0.00,WeatherDisplay:10.37,2013-10-14 03:55:00,